ASNARO-2 (43152 NORAD) Tracking and Keplerian Element Data

This shows tracking and keplerian element data for the satellite.

Feedback or suggestion? Click here.




ElementValue
Catalog43152
NameASNARO-2
Epoch Orbit39164
Epoch Day35.16827908
Epoch Year2025
RAAN44.5955
Inclination97.409
Eccentricity0.0001738
Argument of Perigee91.7201
Mean Anonmoly268.4235
Mean Motion15.22406782
Decay Rate0.00016876
L11 43152U 18007A 25035.16827908 .00016876 00000+0 73229-3 0 9990
L22 43152 97.4090 44.5955 0001738 91.7201 268.4235 15.22406782391647



Live tracking and technical data element details for ASNARO-2 (NORAD 43152). ASNARO-2 can be tracked NOW for your location showing map with azimuth and elevation plus other details from your city location.







IsCatalogInMostPopularTable: catalog: 43152, numindb: 347
Update: records affected: 1



GetName: 43152 ASNARO-2

Hit Count: updated at: Fri, 16 May 2025 11:08:02 GMT